| time (UTC) | temp C | wind direction | speed KPH | gust KPH | rain 1hr cm | rain 24hr cm | rain mn cm | humidity % | barometer mb |
| 20260509131501 | 8 | 177 | 4.8 | 19.3 | 0.00 | 0.00 | 0.00 | 48 | 1012.5 |
| 20260509130106 | 7 | 126 | 8.0 | 17.7 | 0.00 | 0.00 | 0.00 | 51 | 1012.6 |
| 20260509124611 | 7 | 139 | 3.2 | 17.7 | 0.00 | 0.00 | 0.00 | 52 | 1012.8 |
| 20260509123058 | 6 | 131 | 8.0 | 25.7 | 0.00 | 0.00 | 0.00 | 55 | 1012.8 |
| 20260509121551 | 6 | 168 | 6.4 | 20.9 | 0.00 | 0.00 | 0.00 | 57 | 1012.9 |
| 20260509120055 | 6 | 188 | 4.8 | 16.1 | 0.00 | 0.00 | 0.00 | 55 | 1012.9 |
| 20260509114543 | 5 | 152 | 8.0 | 19.3 | 0.00 | 0.00 | 0.00 | 58 | 1013.0 |
| 20260509113039 | 5 | 200 | 6.4 | 16.1 | 0.00 | 0.00 | 0.00 | 60 | 1012.9 |
| 20260509111535 | 4 | 126 | 6.4 | 11.3 | 0.00 | 0.00 | 0.00 | 62 | 1012.9 |
| 20260509110032 | 3 | 138 | 4.8 | 12.9 | 0.00 | 0.00 | 0.00 | 63 | 1012.8 |
| 20260509104534 | 3 | 174 | 4.8 | 17.7 | 0.00 | 0.00 | 0.00 | 66 | 1012.9 |
| 20260509103022 | 2 | 117 | 6.4 | 11.3 | 0.00 | 0.00 | 0.00 | 67 | 1012.7 |
| 20260509101520 | 2 | 121 | 4.8 | 9.7 | 0.00 | 0.00 | 0.00 | 67 | 1012.5 |
| 20260509100029 | 2 | 123 | 4.8 | 11.3 | 0.00 | 0.00 | 0.00 | 70 | 1012.4 |
| 20260509094521 | 1 | 138 | 3.2 | 9.7 | 0.00 | 0.00 | 0.00 | 71 | 1012.4 |
| 20260509093014 | 1 | 119 | 3.2 | 6.4 | 0.00 | 0.00 | 0.00 | 71 | 1012.3 |
| 20260509091513 | 2 | 108 | 3.2 | 11.3 | 0.00 | 0.00 | 0.00 | 71 | 1012.0 |
| 20260509090012 | 2 | 132 | 4.8 | 11.3 | 0.00 | 0.00 | 0.00 | 71 | 1011.9 |
| 20260509084515 | 1 | 134 | 6.4 | 12.9 | 0.00 | 0.00 | 0.00 | 73 | 1012.0 |
| 20260509083008 | 1 | 119 | 3.2 | 6.4 | 0.00 | 0.00 | 0.00 | 72 | 1012.0 |
| 20260509081512 | 1 | 121 | 4.8 | 9.7 | 0.00 | 0.00 | 0.00 | 74 | 1012.1 |
| 20260509080006 | 1 | 117 | 4.8 | 12.9 | 0.00 | 0.00 | 0.00 | 74 | 1012.1 |
| 20260509074504 | 1 | 111 | 4.8 | 9.7 | 0.00 | 0.00 | 0.00 | 75 | 1012.0 |
| 20260509073101 | 1 | 123 | 3.2 | 9.7 | 0.00 | 0.00 | 0.00 | 73 | 1012.2 |
| 20260509071610 | 2 | 163 | 1.6 | 8.0 | 0.00 | 0.00 | 0.00 | 70 | 1012.2 |
| 20260509070056 | 2 | 118 | 3.2 | 9.7 | 0.00 | 0.00 | 0.00 | 71 | 1012.2 |
| 20260509064604 | 1 | 129 | 1.6 | 4.8 | 0.00 | 0.00 | 0.00 | 73 | 1012.2 |
| 20260509063054 | 1 | 131 | 3.2 | 6.4 | 0.00 | 0.00 | 0.00 | 72 | 1012.2 |
| 20260509061524 | 2 | 123 | 3.2 | 11.3 | 0.00 | 0.00 | 0.00 | 70 | 1012.2 |
| 20260509060023 | 2 | 134 | 3.2 | 9.7 | 0.00 | 0.00 | 0.00 | 70 | 1012.4 |
| 20260509054619 | 2 | 135 | 3.2 | 4.8 | 0.00 | 0.00 | 0.00 | 69 | 1012.4 |
| 20260509053019 | 2 | 129 | 1.6 | 6.4 | 0.00 | 0.00 | 0.00 | 70 | 1012.2 |
| 20260509051528 | 2 | 135 | 3.2 | 6.4 | 0.00 | 0.00 | 0.00 | 69 | 1012.1 |
| 20260509050020 | 2 | 179 | 3.2 | 6.4 | 0.00 | 0.00 | 0.00 | 68 | 1012.1 |
| 20260509044550 | 2 | 130 | 3.2 | 4.8 | 0.00 | 0.00 | 0.00 | 66 | 1012.0 |
| 20260509043045 | 2 | 131 | 3.2 | 6.4 | 0.00 | 0.00 | 0.00 | 64 | 1012.0 |
| 20260509041542 | 2 | 127 | 1.6 | 4.8 | 0.00 | 0.00 | 0.00 | 60 | 1012.0 |
| 20260509040041 | 2 | 140 | 3.2 | 4.8 | 0.00 | 0.00 | 0.00 | 58 | 1012.0 |
| 20260509034544 | 2 | 125 | 1.6 | 6.4 | 0.00 | 0.00 | 0.00 | 57 | 1012.0 |
| 20260509033040 | 2 | 158 | 3.2 | 4.8 | 0.00 | 0.00 | 0.00 | 57 | 1012.0 |
| 20260509031539 | 2 | 171 | 1.6 | 3.2 | 0.00 | 0.00 | 0.00 | 56 | 1011.8 |
| 20260509030035 | 2 | 171 | 1.6 | 3.2 | 0.00 | 0.00 | 0.00 | 58 | 1011.5 |
| 20260509024534 | 2 | 171 | 1.6 | 3.2 | 0.00 | 0.00 | 0.00 | 58 | 1011.5 |
| 20260509023036 | 2 | 171 | 1.6 | 4.8 | 0.00 | 0.00 | 0.00 | 61 | 1011.4 |
| 20260509021529 | 2 | 171 | 1.6 | 3.2 | 0.00 | 0.00 | 0.00 | 57 | 1011.4 |
| 20260509020027 | 2 | 171 | 0.0 | 1.6 | 0.00 | 0.00 | 0.00 | 60 | 1011.3 |
| 20260509014527 | 2 | 171 | 0.0 | 3.2 | 0.00 | 0.00 | 0.00 | 58 | 1011.2 |
| 20260509013035 | 3 | 171 | 1.6 | 3.2 | 0.00 | 0.00 | 0.00 | 56 | 1011.0 |
| 20260509011521 | 3 | 171 | 1.6 | 3.2 | 0.00 | 0.00 | 0.00 | 60 | 1010.8 |
| 20260509010019 | 3 | 171 | 1.6 | 3.2 | 0.00 | 0.00 | 0.00 | 62 | 1010.6 |
| 20260509004517 | 3 | 171 | 1.6 | 3.2 | 0.00 | 0.00 | 0.00 | 60 | 1010.5 |
| 20260509003020 | 4 | 171 | 1.6 | 3.2 | 0.00 | 0.00 | 0.00 | 57 | 1010.3 |
| 20260509001512 | 5 | 219 | 0.0 | 3.2 | 0.00 | 0.00 | 0.00 | 54 | 1010.1 |
| 20260509000011 | 5 | 270 | 0.0 | 3.2 | 0.00 | 0.00 | 0.00 | 48 | 1010.0 |
| 20260508234508 | 6 | 69 | 0.0 | 4.8 | 0.00 | 0.00 | 0.00 | 47 | 1009.9 |
| 20260508233008 | 6 | 309 | 0.0 | 3.2 | 0.00 | 0.00 | 0.00 | 48 | 1009.7 |
| 20260508231505 | 6 | 351 | 1.6 | 6.4 | 0.00 | 0.00 | 0.00 | 47 | 1009.7 |
| 20260508230012 | 6 | 329 | 3.2 | 9.7 | 0.00 | 0.00 | 0.00 | 45 | 1009.5 |
| 20260508224510 | 6 | 300 | 1.6 | 9.7 | 0.00 | 0.00 | 0.00 | 45 | 1009.7 |
| 20260508223010 | 6 | 345 | 4.8 | 9.7 | 0.00 | 0.00 | 0.00 | 44 | 1009.7 |
| 20260508221606 | 7 | 269 | 6.4 | 16.1 | 0.00 | 0.00 | 0.00 | 44 | 1009.6 |
| 20260508220104 | 7 | 336 | 3.2 | 14.5 | 0.00 | 0.00 | 0.00 | 46 | 1009.4 |
| 20260508214557 | 7 | 275 | 1.6 | 9.7 | 0.00 | 0.00 | 0.00 | 45 | 1009.4 |
| 20260508213115 | 7 | 275 | 4.8 | 20.9 | 0.00 | 0.00 | 0.00 | 46 | 1009.4 |
| 20260508211526 | 7 | 298 | 6.4 | 16.1 | 0.00 | 0.00 | 0.00 | 44 | 1009.2 |
| 20260508210026 | 7 | 281 | 8.0 | 19.3 | 0.00 | 0.00 | 0.00 | 44 | 1009.0 |
| 20260508204523 | 7 | 75 | 6.4 | 19.3 | 0.00 | 0.00 | 0.00 | 45 | 1009.0 |
| 20260508203021 | 7 | 298 | 6.4 | 16.1 | 0.00 | 0.00 | 0.00 | 44 | 1008.9 |
| 20260508201523 | 7 | 305 | 8.0 | 17.7 | 0.00 | 0.00 | 0.00 | 45 | 1009.0 |
| 20260508200018 | 7 | 292 | 6.4 | 14.5 | 0.00 | 0.00 | 0.00 | 45 | 1008.9 |
| 20260508194548 | 7 | 242 | 4.8 | 17.7 | 0.00 | 0.00 | 0.00 | 44 | 1008.9 |
| 20260508193120 | 7 | 311 | 6.4 | 20.9 | 0.00 | 0.00 | 0.00 | 45 | 1008.9 |
| 20260508191543 | 6 | 271 | 4.8 | 17.7 | 0.00 | 0.00 | 0.00 | 47 | 1008.9 |
| 20260508190042 | 6 | 299 | 8.0 | 14.5 | 0.00 | 0.00 | 0.00 | 45 | 1008.8 |
| 20260508184553 | 6 | 321 | 6.4 | 17.7 | 0.00 | 0.00 | 0.00 | 46 | 1009.0 |
| 20260508183043 | 6 | 265 | 9.7 | 19.3 | 0.00 | 0.00 | 0.00 | 46 | 1008.9 |
| 20260508181538 | 6 | 291 | 6.4 | 20.9 | 0.00 | 0.00 | 0.00 | 47 | 1009.0 |
| 20260508180037 | 6 | 322 | 6.4 | 17.7 | 0.00 | 0.00 | 0.00 | 45 | 1008.9 |
| 20260508174554 | 6 | 252 | 9.7 | 17.7 | 0.00 | 0.00 | 0.00 | 49 | 1009.1 |
| 20260508173036 | 6 | 292 | 8.0 | 24.1 | 0.00 | 0.00 | 0.00 | 48 | 1009.0 |
| 20260508171543 | 6 | 272 | 9.7 | 20.9 | 0.00 | 0.00 | 0.00 | 47 | 1009.1 |
| 20260508170005 | 5 | 312 | 4.8 | 19.3 | 0.00 | 0.00 | 0.00 | 52 | 1009.0 |
| 20260508164504 | 5 | 316 | 8.0 | 17.7 | 0.00 | 0.00 | 0.00 | 49 | 1009.0 |
| 20260508163100 | 5 | 259 | 6.4 | 19.3 | 0.00 | 0.00 | 0.00 | 50 | 1009.1 |
| 20260508161603 | 6 | 255 | 9.7 | 17.7 | 0.00 | 0.00 | 0.00 | 50 | 1009.1 |
| 20260508154556 | 5 | 300 | 9.7 | 22.5 | 0.00 | 0.00 | 0.00 | 53 | 1009.0 |
| 20260508153035 | 6 | 265 | 11.3 | 19.3 | 0.00 | 0.00 | 0.00 | 55 | 1009.0 |
| 20260508151535 | 5 | 285 | 8.0 | 17.7 | 0.00 | 0.00 | 0.00 | 58 | 1009.0 |
| 20260508150023 | 5 | 351 | 4.8 | 20.9 | 0.00 | 0.00 | 0.00 | 61 | 1009.0 |
| 20260508144517 | 5 | 306 | 6.4 | 16.1 | 0.00 | 0.00 | 0.00 | 63 | 1008.8 |
| 20260508143016 | 3 | 283 | 6.4 | 17.7 | 0.00 | 0.00 | 0.00 | 66 | 1008.9 |
| 20260508141516 | 4 | 360 | 12.9 | 33.8 | 0.00 | 0.00 | 0.00 | 63 | 1008.9 |
| 20260508140012 | 4 | 292 | 6.4 | 16.1 | 0.00 | 0.00 | 0.00 | 64 | 1008.8 |
| 20260508134510 | 5 | 288 | 6.4 | 14.5 | 0.00 | 0.00 | 0.00 | 60 | 1008.6 |
| 20260508133010 | 4 | 302 | 6.4 | 22.5 | 0.00 | 0.00 | 0.00 | 61 | 1008.5 |